Weather History for LLBG - April, 2014

Change the Weather History Date:

Tuesday, April 29, 2014

  Actual Average Record
Temperature  
Mean Temperature 71 °F -  
Max Temperature 81 °F 79 °F - ()
Min Temperature 61 °F 61 °F - ()
Cooling Degree Days 6    
Growing Degree Days 21 (Base 50)    
Moisture  
Dew Point 57 °F    
Average Humidity 63    
Maximum Humidity 78    
Minimum Humidity 37    
Precipitation  
Precipitation 0.00 in - - ()
Sea Level Pressure  
Sea Level Pressure 29.96 in    
Wind  
Wind Speed 5 mph ()    
Max Wind Speed 14 mph    
Max Gust Speed -    
Visibility 6.1 miles    
Events      
T = Trace of Precipitation, MM = Missing Value Source: Averaged Metar Reports

Daily Weather History Graph

Daily Weather History Graph

Search for Another Location

Airport or City:

Trip Planner

Search our weather history database for the weather conditions in past years. The results will help you decide how hot, cold, wet, or windy it might be!

Date:

Astronomy

Apr. 29, 2014 Rise Set
Actual Time 5:56 AM IDT 7:19 PM IDT
Civil Twilight 5:30 AM IDT 7:45 PM IDT
Nautical Twilight 5:00 AM IDT 8:16 PM IDT
Astronomical Twilight 4:28 AM IDT 8:48 PM IDT
Moon 5:59 AM IDT (4/29) 7:38 PM IDT (4/29)
Length of Visible Light 14h 14m
Length of Day
13h 22m
New Moon, 0% of the Moon is Illuminated
Apr 29
New Moon
May 7
First Quarter
May 14
Full
May 21
Last Quarter
May 28
New

Hourly Weather History & Observations

Time (IDT) Temp. Heat Index Dew Point Humidity Pressure Visibility Wind Dir Wind Speed Gust Speed Precip Events Conditions
12:00 AM 67 °F - 60 °F 71% 30.00 in 6 mi 1.2 mph - -  
12:20 AM 68.0 °F - 57.2 °F 68% 29.98 in 6.2 mi Variable 2.3 mph - N/A   Partly Cloudy
12:50 AM 66.2 °F - 55.4 °F 68% 29.98 in 6.2 mi Variable 3.5 mph - N/A   Partly Cloudy
1:20 AM 66.2 °F - 53.6 °F 64% 29.98 in 6.2 mi Variable 2.3 mph - N/A   Mostly Cloudy
1:50 AM 66.2 °F - 53.6 °F 64% 29.98 in 6.2 mi SE 5.8 mph - N/A   Partly Cloudy
2:20 AM 64.4 °F - 53.6 °F 68% 29.98 in 6.2 mi SE 5.8 mph - N/A   Scattered Clouds
2:50 AM 64.4 °F - 53.6 °F 68% 29.98 in 6.2 mi SE 4.6 mph - N/A   Mostly Cloudy
3:00 AM 64 °F - 54 °F 61% 29.98 in 6 mi SE 4.6 mph - -   Mostly Cloudy
3:20 AM 64.4 °F - 55.4 °F 73% 29.98 in 6.2 mi SE 4.6 mph - N/A   Scattered Clouds
3:50 AM 62.6 °F - 55.4 °F 77% 29.98 in 6.2 mi SE 4.6 mph - N/A   Scattered Clouds
4:20 AM 62.6 °F - 55.4 °F 77% 29.98 in 6.2 mi Variable 3.5 mph - N/A   Mostly Cloudy
4:50 AM 62.6 °F - 55.4 °F 77% 29.98 in 6.2 mi Variable 3.5 mph - N/A   Scattered Clouds
5:20 AM 62.6 °F - 55.4 °F 77% 29.98 in 6.2 mi SE 4.6 mph - N/A   Scattered Clouds
5:50 AM 62.6 °F - 55.4 °F 77% 29.98 in 6.2 mi Variable 3.5 mph - N/A   Scattered Clouds
6:00 AM 63 °F - 56 °F 70% 29.99 in 6 mi SE 3.5 mph - -   Partly Cloudy
6:20 AM 62.6 °F - 53.6 °F 72% 29.98 in 6.2 mi Variable 2.3 mph - N/A   Partly Cloudy
6:50 AM 64.4 °F - 55.4 °F 73% 29.98 in 6.2 mi ESE 4.6 mph - N/A   Partly Cloudy
7:20 AM 64.4 °F - 57.2 °F 77% 29.98 in 6.2 mi SE 5.8 mph - N/A   Partly Cloudy
7:50 AM 68.0 °F - 57.2 °F 68% 29.98 in 6.2 mi SSE 5.8 mph - N/A   Partly Cloudy
8:20 AM 69.8 °F - 59.0 °F 68% 29.98 in 6.2 mi Variable 3.5 mph - N/A   Partly Cloudy
8:50 AM 69.8 °F - 59.0 °F 68% 29.98 in 6.2 mi Variable 3.5 mph - N/A   Scattered Clouds
9:00 AM 71 °F - 59 °F 58% 30.00 in 6 mi 3.5 mph - -   Partly Cloudy
9:20 AM 69.8 °F - 57.2 °F 64% 30.01 in 6.2 mi Variable 1.2 mph - N/A   Scattered Clouds
9:50 AM 73.4 °F - 57.2 °F 57% 30.01 in 6.2 mi Variable 2.3 mph - N/A   Scattered Clouds
10:20 AM 75.2 °F - 57.2 °F 53% 29.98 in 6.2 mi ENE 4.6 mph - N/A   Partly Cloudy
10:50 AM 77.0 °F - 55.4 °F 47% 29.98 in - Variable 1.2 mph - N/A   Clear
11:20 AM 78.8 °F - 53.6 °F 42% 29.98 in - Variable 2.3 mph - N/A   Clear
11:50 AM 80.6 °F - 51.8 °F 37% 29.98 in - Variable 3.5 mph - N/A   Clear
12:00 PM 80 °F - 59 °F 38% 29.98 in 6 mi 3.5 mph - -  
12:20 PM 80.6 °F 81.1 °F 59.0 °F 48% 29.98 in - West 8.1 mph - N/A   Clear
12:50 PM 80.6 °F 81.1 °F 59.0 °F 48% 29.98 in - West 8.1 mph - N/A   Clear
1:20 PM 78.8 °F - 60.8 °F 54% 29.98 in - WNW 13.8 mph - N/A   Clear
1:50 PM 78.8 °F - 60.8 °F 54% 29.95 in - WNW 11.5 mph - N/A   Clear
2:20 PM 80.6 °F 81.1 °F 59.0 °F 48% 29.95 in - WNW 10.4 mph - N/A   Clear
2:50 PM 78.8 °F - 59.0 °F 51% 29.95 in - WNW 12.7 mph - N/A   Clear
3:00 PM 79 °F - 59 °F 40% 29.94 in 6 mi WNW 12.7 mph - -  
3:20 PM 78.8 °F - 57.2 °F 47% 29.92 in - NW 11.5 mph - N/A   Clear
3:50 PM 78.8 °F - 59.0 °F 51% 29.92 in - NW 13.8 mph - N/A   Clear
4:20 PM 77.0 °F - 57.2 °F 50% 29.92 in - NW 13.8 mph - N/A   Clear
4:50 PM 77.0 °F - 57.2 °F 50% 29.92 in - NNW 13.8 mph - N/A   Clear
5:20 PM 75.2 °F - 57.2 °F 53% 29.92 in - NNW 13.8 mph - N/A   Clear
5:50 PM 75.2 °F - 57.2 °F 53% 29.92 in - NNW 13.8 mph - N/A   Clear
6:00 PM 74 °F - 58 °F 47% 29.93 in 6 mi NNW 13.8 mph - -  
6:20 PM 73.4 °F - 59.0 °F 61% 29.92 in - North 13.8 mph - N/A   Clear
6:50 PM 71.6 °F - 57.2 °F 60% 29.92 in - NNW 13.8 mph - N/A   Clear
7:20 PM 69.8 °F - 59.0 °F 68% 29.92 in - North 9.2 mph - N/A   Clear
7:50 PM 69.8 °F - 59.0 °F 68% 29.92 in - North 9.2 mph - N/A   Clear
8:20 PM 68.0 °F - 59.0 °F 73% 29.95 in - North 5.8 mph - N/A   Clear
8:50 PM 68.0 °F - 59.0 °F 73% 29.95 in - NNE 6.9 mph - N/A   Clear
9:00 PM 68 °F - 59 °F 65% 29.95 in 6 mi NNE 5.8 mph - -  
9:20 PM 68.0 °F - 59.0 °F 73% 29.95 in - NNE 6.9 mph - N/A   Clear
9:50 PM 68.0 °F - 59.0 °F 73% 29.95 in - NNE 5.8 mph - N/A   Clear
10:20 PM 66.2 °F - 59.0 °F 78% 29.95 in - Variable 3.5 mph - N/A   Clear
10:50 PM 66.2 °F - 59.0 °F 78% 29.95 in - Variable 3.5 mph - N/A   Clear
11:20 PM 66.2 °F - 59.0 °F 78% 29.95 in - NNE 4.6 mph - N/A   Clear
11:50 PM 66.2 °F - 59.0 °F 78% 29.95 in - Variable 3.5 mph - N/A   Clear